Location: Beneden-Haastrecht
(52.0012°N, 4.7557°E)
Time: 04:42:36
(UTC+00:00)

ERBS - Pass Details

Date: 24 October 2020
Orbit: 407 x 422 km, 57.0° (Epoch: 25 November)

Event Time Altitude Azimuth Distance (km) Brightness Sun altitude
Rises 19:04:45 0° 285° (WNW) 2,368 7.5 -24.8°
Reaches altitude 10° 19:06:58 10° 295° (WNW) 1,507 6.1 -25.1°
Enters shadow 19:08:54 26° 321° (NW) 882 4.3 -25.4°
